| time (UTC) | temp F | wind direction | speed knots | gust knots | rain 1hr in | rain 24hr in | rain mn in | humidity % | barometer mb |
| 20260902234457 | 71 | 202 | 6.1 | 8.7 | 0.00 | 0.01 | 0.00 | 68 | 1021.8 |
| 20260902233435 | 71 | 201 | 6.1 | 8.7 | 0.00 | 0.01 | 0.00 | 68 | 1022.0 |
| 20260902232433 | 72 | 203 | 6.1 | 7.8 | 0.00 | 0.01 | 0.00 | 67 | 1022.1 |
| 20260902231431 | 72 | 202 | 6.1 | 9.6 | 0.00 | 0.01 | 0.00 | 66 | 1022.2 |
| 20260902230448 | 72 | 205 | 6.1 | 8.7 | 0.00 | 0.01 | 0.00 | 66 | 1022.1 |
| 20260902225427 | 73 | 202 | 6.1 | 9.6 | 0.00 | 0.01 | 0.00 | 65 | 1021.9 |
| 20260902223422 | 73 | 204 | 6.1 | 7.8 | 0.00 | 0.01 | 0.00 | 64 | 1022.0 |
| 20260902222441 | 73 | 201 | 6.1 | 9.6 | 0.00 | 0.01 | 0.00 | 64 | 1022.2 |
| 20260902221419 | 73 | 204 | 6.1 | 7.8 | 0.00 | 0.01 | 0.00 | 64 | 1022.2 |
| 20260902220417 | 73 | 201 | 6.1 | 7.8 | 0.00 | 0.01 | 0.00 | 64 | 1022.1 |
| 20260902215415 | 73 | 204 | 6.1 | 8.7 | 0.00 | 0.01 | 0.00 | 64 | 1022.0 |
| 20260902214413 | 73 | 202 | 6.1 | 8.7 | 0.00 | 0.01 | 0.00 | 64 | 1021.9 |
| 20260902213410 | 74 | 202 | 5.2 | 7.8 | 0.00 | 0.01 | 0.00 | 63 | 1022.0 |
| 20260902212410 | 74 | 202 | 6.1 | 7.8 | 0.00 | 0.01 | 0.00 | 62 | 1022.1 |
| 20260902211406 | 74 | 200 | 6.1 | 7.8 | 0.00 | 0.01 | 0.00 | 63 | 1022.1 |
| 20260902210405 | 74 | 200 | 6.1 | 7.8 | 0.00 | 0.01 | 0.00 | 62 | 1022.0 |
| 20260902205405 | 74 | 202 | 6.1 | 9.6 | 0.00 | 0.01 | 0.01 | 63 | 1022.0 |
| 20260902204403 | 74 | 201 | 6.1 | 7.8 | 0.00 | 0.01 | 0.01 | 63 | 1022.0 |
| 20260902203401 | 74 | 199 | 5.2 | 7.8 | 0.00 | 0.01 | 0.01 | 63 | 1022.0 |
| 20260902202358 | 74 | 199 | 6.1 | 7.8 | 0.00 | 0.01 | 0.01 | 63 | 1021.9 |
| 20260902201357 | 74 | 201 | 6.1 | 7.8 | 0.00 | 0.01 | 0.01 | 62 | 1021.9 |
| 20260902200354 | 74 | 199 | 6.1 | 7.8 | 0.00 | 0.01 | 0.01 | 62 | 1021.9 |
| 20260902195352 | 75 | 200 | 6.1 | 7.8 | 0.00 | 0.01 | 0.01 | 62 | 1022.0 |
| 20260902194350 | 75 | 197 | 6.1 | 7.8 | 0.00 | 0.01 | 0.01 | 61 | 1022.0 |
| 20260902193347 | 75 | 198 | 6.1 | 7.8 | 0.00 | 0.01 | 0.01 | 61 | 1022.1 |
| 20260902192405 | 75 | 200 | 5.2 | 7.8 | 0.00 | 0.01 | 0.01 | 60 | 1022.0 |
| 20260902191343 | 76 | 199 | 6.1 | 7.8 | 0.00 | 0.01 | 0.01 | 60 | 1022.0 |
| 20260902190341 | 76 | 198 | 6.1 | 7.8 | 0.00 | 0.01 | 0.01 | 59 | 1022.0 |
| 20260902185339 | 76 | 201 | 6.1 | 7.8 | 0.00 | 0.01 | 0.01 | 59 | 1022.0 |
| 20260902184356 | 77 | 200 | 6.1 | 7.8 | 0.00 | 0.01 | 0.01 | 58 | 1022.0 |
| 20260902183335 | 78 | 200 | 5.2 | 7.8 | 0.00 | 0.01 | 0.01 | 58 | 1022.0 |
| 20260902182332 | 78 | 197 | 6.1 | 7.8 | 0.00 | 0.01 | 0.01 | 57 | 1021.9 |
| 20260902181351 | 79 | 195 | 6.1 | 8.7 | 0.00 | 0.01 | 0.01 | 57 | 1021.8 |
| 20260902180340 | 80 | 195 | 5.2 | 7.8 | 0.00 | 0.01 | 0.01 | 56 | 1021.8 |
| 20260902175328 | 81 | 195 | 6.1 | 11.3 | 0.00 | 0.01 | 0.01 | 55 | 1021.6 |
| 20260902174327 | 82 | 197 | 6.1 | 7.8 | 0.00 | 0.01 | 0.01 | 53 | 1021.5 |
| 20260902173323 | 82 | 198 | 6.1 | 8.7 | 0.00 | 0.01 | 0.01 | 51 | 1021.2 |
| 20260902172321 | 82 | 194 | 5.2 | 7.8 | 0.00 | 0.01 | 0.01 | 51 | 1021.1 |
| 20260902171318 | 83 | 196 | 5.2 | 7.8 | 0.00 | 0.01 | 0.01 | 50 | 1020.9 |
| 20260902170337 | 83 | 197 | 5.2 | 7.8 | 0.00 | 0.01 | 0.01 | 50 | 1020.8 |
| 20260902165315 | 84 | 195 | 5.2 | 7.8 | 0.00 | 0.01 | 0.01 | 49 | 1020.7 |
| 20260902164313 | 84 | 195 | 5.2 | 9.6 | 0.00 | 0.01 | 0.01 | 48 | 1020.6 |
| 20260902163311 | 85 | 197 | 6.1 | 7.8 | 0.00 | 0.01 | 0.01 | 48 | 1020.6 |
| 20260902162309 | 85 | 194 | 6.1 | 8.7 | 0.00 | 0.01 | 0.01 | 47 | 1020.5 |
| 20260902161308 | 85 | 194 | 6.1 | 7.8 | 0.00 | 0.01 | 0.01 | 46 | 1020.6 |
| 20260902160305 | 86 | 192 | 6.1 | 7.8 | 0.00 | 0.01 | 0.01 | 46 | 1020.6 |
| 20260902155306 | 86 | 192 | 6.1 | 9.6 | 0.00 | 0.01 | 0.01 | 46 | 1020.6 |
| 20260902154303 | 86 | 193 | 5.2 | 7.8 | 0.00 | 0.01 | 0.01 | 45 | 1020.6 |
| 20260902153300 | 87 | 192 | 6.1 | 7.8 | 0.00 | 0.01 | 0.01 | 46 | 1020.7 |
| 20260902152257 | 87 | 191 | 6.1 | 7.8 | 0.00 | 0.01 | 0.01 | 45 | 1020.8 |
| 20260902151255 | 87 | 189 | 6.1 | 8.7 | 0.00 | 0.01 | 0.01 | 45 | 1020.8 |
| 20260902150253 | 87 | 190 | 6.1 | 7.8 | 0.00 | 0.01 | 0.01 | 45 | 1020.8 |
| 20260902145251 | 87 | 188 | 6.1 | 9.6 | 0.00 | 0.01 | 0.01 | 44 | 1020.8 |
| 20260902144250 | 88 | 185 | 6.1 | 8.7 | 0.00 | 0.01 | 0.01 | 44 | 1020.9 |
| 20260902143247 | 88 | 192 | 6.1 | 7.8 | 0.00 | 0.01 | 0.01 | 44 | 1020.9 |
| 20260902142245 | 88 | 188 | 6.1 | 9.6 | 0.00 | 0.01 | 0.01 | 44 | 1020.9 |
| 20260902141243 | 88 | 188 | 6.1 | 7.8 | 0.00 | 0.01 | 0.01 | 44 | 1021.1 |
| 20260902140240 | 88 | 189 | 6.1 | 8.7 | 0.00 | 0.01 | 0.01 | 44 | 1021.2 |
| 20260902135239 | 88 | 190 | 6.1 | 8.7 | 0.00 | 0.01 | 0.01 | 44 | 1021.2 |
| 20260902134319 | 89 | 189 | 6.1 | 7.8 | 0.00 | 0.01 | 0.01 | 44 | 1021.3 |
| 20260902133257 | 89 | 186 | 6.1 | 8.7 | 0.00 | 0.01 | 0.01 | 43 | 1021.3 |
| 20260902132233 | 90 | 188 | 6.1 | 9.6 | 0.00 | 0.01 | 0.01 | 42 | 1021.5 |
| 20260902131231 | 90 | 185 | 6.1 | 8.7 | 0.00 | 0.01 | 0.01 | 43 | 1021.5 |
| 20260902130229 | 91 | 185 | 6.1 | 9.6 | 0.00 | 0.01 | 0.01 | 42 | 1021.6 |
| 20260902125227 | 92 | 184 | 6.1 | 9.6 | 0.00 | 0.01 | 0.01 | 41 | 1021.7 |
| 20260902124236 | 93 | 183 | 6.1 | 8.7 | 0.00 | 0.01 | 0.01 | 40 | 1021.9 |
| 20260902123234 | 94 | 185 | 6.1 | 9.6 | 0.00 | 0.01 | 0.01 | 39 | 1022.0 |
| 20260902122221 | 95 | 185 | 6.1 | 9.6 | 0.00 | 0.01 | 0.01 | 38 | 1022.2 |
| 20260902121218 | 95 | 184 | 6.1 | 8.7 | 0.00 | 0.01 | 0.01 | 40 | 1022.2 |
| 20260902120217 | 94 | 189 | 6.1 | 9.6 | 0.00 | 0.01 | 0.01 | 40 | 1022.4 |
| 20260902115258 | 94 | 186 | 6.1 | 8.7 | 0.00 | 0.01 | 0.01 | 41 | 1022.5 |
| 20260902114213 | 93 | 187 | 6.1 | 7.8 | 0.00 | 0.01 | 0.01 | 41 | 1022.7 |
| 20260902113211 | 92 | 191 | 5.2 | 10.4 | 0.00 | 0.01 | 0.01 | 42 | 1022.8 |
| 20260902112209 | 92 | 193 | 5.2 | 9.6 | 0.00 | 0.01 | 0.01 | 41 | 1023.0 |
| 20260902111207 | 91 | 190 | 5.2 | 8.7 | 0.00 | 0.01 | 0.01 | 42 | 1023.1 |
| 20260902110228 | 91 | 194 | 5.2 | 7.8 | 0.00 | 0.01 | 0.01 | 44 | 1023.1 |
| 20260902105203 | 90 | 194 | 5.2 | 7.8 | 0.00 | 0.01 | 0.01 | 45 | 1023.1 |
| 20260902104201 | 90 | 191 | 5.2 | 8.7 | 0.00 | 0.01 | 0.01 | 44 | 1023.2 |
| 20260902103159 | 89 | 191 | 5.2 | 9.6 | 0.00 | 0.01 | 0.01 | 46 | 1023.3 |
| 20260902102156 | 89 | 191 | 5.2 | 9.6 | 0.00 | 0.01 | 0.01 | 47 | 1023.4 |
| 20260902101155 | 89 | 191 | 5.2 | 9.6 | 0.00 | 0.01 | 0.01 | 46 | 1023.5 |
| 20260902100216 | 90 | 192 | 5.2 | 7.8 | 0.00 | 0.01 | 0.01 | 46 | 1023.6 |
| 20260902095151 | 89 | 189 | 5.2 | 8.7 | 0.00 | 0.01 | 0.01 | 45 | 1023.6 |
| 20260902094210 | 90 | 190 | 5.2 | 8.7 | 0.00 | 0.01 | 0.01 | 44 | 1023.6 |
| 20260902093147 | 91 | 190 | 5.2 | 7.8 | 0.00 | 0.01 | 0.01 | 45 | 1023.7 |
| 20260902092144 | 90 | 187 | 6.1 | 7.8 | 0.00 | 0.01 | 0.01 | 47 | 1023.8 |
| 20260902091143 | 89 | 191 | 5.2 | 7.8 | 0.00 | 0.01 | 0.01 | 46 | 1023.9 |
| 20260902090142 | 88 | 184 | 6.1 | 7.8 | 0.00 | 0.01 | 0.01 | 49 | 1023.9 |
| 20260902085139 | 87 | 184 | 6.1 | 8.7 | 0.00 | 0.01 | 0.01 | 50 | 1023.9 |
| 20260902084136 | 86 | 188 | 6.1 | 7.8 | 0.00 | 0.01 | 0.01 | 51 | 1023.9 |
| 20260902083135 | 85 | 189 | 6.1 | 8.7 | 0.00 | 0.01 | 0.01 | 52 | 1024.0 |
| 20260902082133 | 84 | 187 | 6.1 | 8.7 | 0.00 | 0.01 | 0.01 | 54 | 1024.1 |
| 20260902081131 | 84 | 192 | 5.2 | 7.8 | 0.00 | 0.01 | 0.01 | 54 | 1024.1 |
| 20260902080130 | 83 | 190 | 6.1 | 7.8 | 0.00 | 0.01 | 0.01 | 53 | 1024.0 |
| 20260902075126 | 83 | 195 | 5.2 | 7.8 | 0.00 | 0.01 | 0.01 | 56 | 1024.0 |
| 20260902074128 | 82 | 196 | 5.2 | 7.8 | 0.00 | 0.01 | 0.01 | 59 | 1023.9 |
| 20260902073123 | 80 | 201 | 5.2 | 9.6 | 0.00 | 0.01 | 0.01 | 61 | 1023.8 |
| 20260902072123 | 79 | 202 | 5.2 | 7.8 | 0.00 | 0.01 | 0.01 | 63 | 1023.9 |
| 20260902071118 | 78 | 199 | 5.2 | 8.7 | 0.00 | 0.01 | 0.01 | 63 | 1023.8 |
| 20260902070117 | 79 | 200 | 5.2 | 10.4 | 0.00 | 0.01 | 0.01 | 61 | 1023.8 |
| 20260902065115 | 79 | 200 | 5.2 | 7.8 | 0.00 | 0.01 | 0.01 | 66 | 1023.8 |
| 20260902064112 | 77 | 199 | 5.2 | 7.8 | 0.00 | 0.01 | 0.01 | 69 | 1023.8 |
| 20260902063131 | 76 | 199 | 5.2 | 7.8 | 0.00 | 0.01 | 0.01 | 71 | 1023.7 |
| 20260902062109 | 74 | 197 | 6.1 | 8.7 | 0.00 | 0.01 | 0.01 | 75 | 1023.7 |
| 20260902061107 | 73 | 198 | 6.1 | 7.8 | 0.00 | 0.01 | 0.01 | 78 | 1023.6 |
| 20260902060127 | 73 | 195 | 5.2 | 8.7 | 0.00 | 0.01 | 0.01 | 80 | 1023.6 |
| 20260902055105 | 72 | 199 | 6.1 | 9.6 | 0.00 | 0.01 | 0.01 | 88 | 1023.8 |
| 20260902054101 | 70 | 203 | 6.1 | 8.7 | 0.01 | 0.01 | 0.01 | 88 | 1023.9 |
| 20260902053059 | 69 | 207 | 6.1 | 8.7 | 0.01 | 0.01 | 0.01 | 88 | 1024.0 |
| 20260902052057 | 68 | 207 | 6.1 | 7.8 | 0.01 | 0.01 | 0.01 | 88 | 1023.8 |
| 20260902051054 | 68 | 207 | 6.1 | 7.8 | 0.01 | 0.01 | 0.01 | 88 | 1023.8 |
| 20260902050055 | 68 | 209 | 5.2 | 7.8 | 0.01 | 0.01 | 0.01 | 88 | 1023.5 |
| 20260902045113 | 68 | 209 | 6.1 | 7.8 | 0.01 | 0.01 | 0.01 | 88 | 1023.6 |
| 20260902044050 | 68 | 206 | 6.1 | 8.7 | 0.00 | 0.00 | 0.00 | 87 | 1023.4 |
| 20260902043049 | 69 | 207 | 6.1 | 8.7 | 0.00 | 0.00 | 0.00 | 80 | 1023.4 |
| 20260902042045 | 70 | 205 | 6.1 | 9.6 | 0.00 | 0.00 | 0.00 | 73 | 1023.5 |
| 20260902041043 | 71 | 204 | 6.1 | 8.7 | 0.00 | 0.00 | 0.00 | 72 | 1023.5 |
| 20260902040043 | 70 | 201 | 5.2 | 7.8 | 0.00 | 0.00 | 0.00 | 72 | 1023.5 |
| 20260902035040 | 70 | 206 | 5.2 | 7.8 | 0.00 | 0.00 | 0.00 | 73 | 1023.4 |
| 20260902034037 | 70 | 203 | 6.1 | 7.8 | 0.00 | 0.00 | 0.00 | 73 | 1023.1 |
| 20260902032032 | 71 | 204 | 6.1 | 7.8 | 0.00 | 0.00 | 0.00 | 71 | 1022.9 |
| 20260902031031 | 71 | 203 | 6.1 | 9.6 | 0.00 | 0.00 | 0.00 | 70 | 1023.1 |
| 20260902030030 | 72 | 201 | 6.1 | 8.7 | 0.00 | 0.00 | 0.00 | 68 | 1023.3 |
| 20260902025029 | 72 | 201 | 6.1 | 8.7 | 0.00 | 0.00 | 0.00 | 69 | 1023.1 |
| 20260902024025 | 71 | 202 | 6.1 | 8.7 | 0.00 | 0.00 | 0.00 | 69 | 1022.9 |
| 20260902023023 | 72 | 200 | 6.1 | 8.7 | 0.00 | 0.00 | 0.00 | 68 | 1022.8 |
| 20260902022042 | 72 | 202 | 7.0 | 13.0 | 0.00 | 0.00 | 0.00 | 68 | 1022.7 |
| 20260902021019 | 72 | 203 | 7.0 | 12.2 | 0.00 | 0.00 | 0.00 | 68 | 1022.7 |
| 20260902020050 | 71 | 203 | 7.0 | 9.6 | 0.00 | 0.00 | 0.00 | 68 | 1022.5 |
| 20260902015036 | 71 | 205 | 6.1 | 8.7 | 0.00 | 0.00 | 0.00 | 68 | 1022.6 |
| 20260902014015 | 72 | 201 | 6.1 | 8.7 | 0.00 | 0.00 | 0.00 | 68 | 1022.6 |
| 20260902013022 | 72 | 201 | 6.1 | 8.7 | 0.00 | 0.00 | 0.00 | 67 | 1022.6 |
| 20260902012010 | 72 | 200 | 6.1 | 7.8 | 0.00 | 0.00 | 0.00 | 67 | 1022.6 |
| 20260902011008 | 72 | 201 | 6.1 | 8.7 | 0.00 | 0.00 | 0.00 | 67 | 1022.7 |
| 20260902010008 | 72 | 201 | 6.1 | 7.8 | 0.00 | 0.00 | 0.00 | 67 | 1022.7 |
| 20260902005015 | 72 | 201 | 6.1 | 8.7 | 0.00 | 0.00 | 0.00 | 66 | 1022.7 |
| 20260902004001 | 73 | 201 | 6.1 | 9.6 | 0.00 | 0.00 | 0.00 | 66 | 1022.6 |
| 20260902002959 | 73 | 201 | 6.1 | 8.7 | 0.00 | 0.00 | 0.00 | 66 | 1022.5 |
| 20260902002018 | 73 | 201 | 6.1 | 8.7 | 0.00 | 0.00 | 0.00 | 65 | 1022.5 |
| 20260902000955 | 73 | 200 | 6.1 | 7.8 | 0.00 | 0.00 | 0.00 | 65 | 1022.5 |
| 20260901235952 | 73 | 203 | 6.1 | 9.6 | 0.00 | 0.00 | 0.00 | 64 | 1022.5 |